Regional Weather Roundup
Issued by NWS Wakefield, VA

Home | Current Version | Previous Version | Graphics & Text | Print | Product List | Glossary On
Versions: 1 2 3 4 5 6 7 8 9 10 11 12 13 14 15 16 17 18 19 20 21 22 23 24 25 26 27 28 29 30 31 32 33 34 35 36 37 38 39 40 41 42 43 44 45 46 47 48 49 50
024
ASUS41 KAKQ 241115
RWRAKQ

REGIONAL WEATHER ROUNDUP
NATIONAL WEATHER SERVICE WAKEFIELD VA
600 AM EST SAT FEB 24 2018

Note: "fair" indicates few or no clouds below 12,000 feet with no
significant weather and/or obstructions to visibility. * = Denotes
station may not report precipitation (e.g., rain,snow,etc.),
thunder or fog.

VAZ042-051-052>054-056-241200-
NORTHERN VIRGINIA

CITY           SKY/WX    TMP DP  RH WIND       PRES   REMARKS
WASH NATIONAL  FOG       49  49 100 N6        30.18R VSB 1/4
DULLES         FOG       48  48 100 E3        30.15F VSB 1/4
FORT BELVOIR   FOG       49  48  99 CALM      30.16S VSB 3/8
QUANTICO       CLOUDY    50  50 100 NE5       30.17S FOG
FREDERICKSBRG* FAIR      48  48 100 CALM      30.14F FOG
STAFFORD*      CLOUDY    51  51 100 N3        30.20R FOG
WARRENTON      FOG       50  48  91 NE5       30.13F VSB 1/2
CULPEPER*      FOG       50  48  95 CALM      30.15F VSB 1/4
MANASSAS*      FOG       49  48  97 E5        30.15F VSB 1/2
LEESBURG*      FOG       43  43 100 CALM      30.16F VSB 1/2
WINCHESTER     FAIR      41  41 100 CALM      30.15F FOG
FRONT ROYAL*   CLOUDY    41  41 100 CALM      30.12F
LURAY*         FAIR      46  46 100 CALM      30.12F
$$

VAZ048-049-060>072-079>083-241200-
CENTRAL AND SOUTH CENTRAL VIRGINIA

CITY           SKY/WX    TMP DP  RH WIND       PRES   REMARKS
RICHMOND       FOG       52  52 100 S7        30.17S VSB 1/4
CHESTERFIELD*  CLOUDY    52  52 100 SW6       30.17F FOG
PETERSBURG*    FOG       53  51  95 S6        30.18F VSB 3/4
HANOVER        FAIR      50  49  96 S7        30.17F FOG
TAPPAHANNOCK*  FOG       53  53 100 S5        30.17F VSB 1/2
QUINTON*       FOG       53  53 100 SW7       30.17F VSB 1
CHARLOTTSVILLE FOG       51  49  92 S7        30.11F VSB 1/4
GORDONSVILLE*  FOG       50  50 100 SW6       30.13F VSB 3/4
ORANGE*        CLOUDY    50  50 100 CALM      30.13S FOG
LOUISA*        FAIR      51  51  97 S7        30.18S FOG
BUMPASS*       PTSUNNY   51  50  95 SW8       30.14F
FARMVILLE*     FAIR     N/A N/A N/A SW3       30.15F HAZE
CREWE*         CLOUDY    48  48 100 CALM      30.17F
FORT PICKETT*  CLOUDY    48  48 100 SW3       30.18F VSB 1/4
CHASE CITY*    CLOUDY    45  45 100 CALM      30.19F VSB 1/2
CLARKSVILLE*   CLOUDY    46  46 100 CALM      30.19F VSB 1/4
SOUTH HILL*    CLOUDY    51  51 100 SW5       30.25F VSB 1/4
LAWRENCEVILLE* CLOUDY    52  51  97 SW3       30.19F VSB 1/4
EMPORIA*       FOG       50  50 100 CALM      30.21F VSB 1/2
$$

VAZ088>098-241200-
SOUTHEAST VIRGINIA

CITY           SKY/WX    TMP DP  RH WIND       PRES   REMARKS
NORFOLK        CLOUDY    61  60  97 SW12      30.20S
VIRGINIA BEACH CLOUDY    60  58  92 SW12      30.20S
NORFOLK NAVAL  CLOUDY    61  59  93 SW9       30.21S
WEST POINT*    CLOUDY    55  54  97 SW5       30.20S VSB 3/4
SALUDA*        CLOUDY    55  55 100 SW3       30.18S
NEWPORT NEWS   FOG       58  57  97 SW8       30.19F VSB 1
LANGLEY AFB    CLOUDY    60  60 100 SW9       30.19F FOG
FORT EUSTIS    CLOUDY    59  59 100 SW6       30.16F FOG
WILLIAMSBURG*  CLOUDY    59  57  94 SW5       30.19F VSB 3/4
HR EXEC AP*    CLOUDY    61  61 100 SW7       30.21F
FRANKLIN*      CLOUDY    60  60  98 SW6       30.21S
US460-WAKEFLD  FOG       57  57 100 S6        30.19F VSB 1/2
$$

VAZ020-022-025-037-045-241200-
WEST CENTRAL AND SOUTHWEST VIRGINIA

CITY           SKY/WX    TMP DP  RH WIND       PRES   REMARKS
STAUNTON*      FAIR      48  47  98 CALM      30.14F
WAYNESBORO*    FAIR      51  51 100 W3        30.13F
HOT SPRINGS VA CLOUDY    58  49  72 SW12      30.20F
LYNCHBURG      FOG       48  48 100 S6        30.15F VSB 1/4
DANVILLE       FOG       44  44 100 CALM      30.19F VSB 1/2
SOUTH BOSTON*  CLOUDY    44  42  95 CALM      30.20S VSB 1
MARTINSVILLE   FAIR      45  44  98 CALM      30.21F FOG
ROANOKE        MOCLDY    47  45  93 CALM      30.19F
BLACKSBURG     FAIR      53  53 100 CALM      30.21S FOG
DUBLIN*        FAIR      54  54 100 CALM      30.19S FOG
MARION*        CLOUDY    53  50  90 CALM      30.22S
HILLSVILLE*    FAIR      55  54  95 S6        30.20S
RICHLANDS*     CLOUDY    61  50  67 S6        30.19R
WISE*          CLOUDY    61  52  72 S6        30.18F
ABINGDON*      FAIR      56  53  89 CALM      30.18S
$$

MDZ021>025-VAZ099-100-241200-
SOUTHERN MARYLAND AND THE DELMARVA PENINSULA

CITY           SKY/WX    TMP DP  RH WIND       PRES   REMARKS
PATUXENT RIVER FOG       45  45 100 SE5       30.17S VSB 1/4
BAY BRIDGE APT FOG       45  45 100 N5        30.19R VSB 1/4
LEONARDTOWN    CLOUDY    48  48 100 CALM      30.18F VSB 1/2
DOVER          NOT AVBL
GEORGETOWN     FOG       50  49  96 S6        30.19R VSB 1/2
EASTON         CLOUDY    50  48  93 CALM      30.21R FOG
CAMBRIDGE      FOG       48  48 100 SE8       30.17F VSB 1/2
SALISBURY      FOG       49  49 100 CALM      30.19R VSB 1/4
OCEAN CITY     FOG       43  43 100 SW5       30.20S VSB 1/2
WALLOPS ISLAND FOG       47  46  97 S8        30.19F VSB 1/2
ACCOMACK*      FOG       49  49 100 S3        30.19R VSB 1/2
$$

NCZ012>017-030>032-241200-
NORTH CENTRAL AND EASTERN NORTH CAROLINA

CITY           SKY/WX    TMP DP  RH WIND       PRES   REMARKS
ROANOKE RAPIDS CLOUDY    61  61 100 CALM      30.21F
RALEIGH        CLOUDY    60  60 100 SW14      30.22S FOG
ELIZABETH CITY CLOUDY    61  61 100 SW9       30.23S FOG
AHOSKIE*       CLOUDY    61  61 100 SW3       30.22S
EDENTON*       CLOUDY    63  63 100 SW3       30.24F
CURRITUCK*     CLOUDY    56  55  99 SW6       30.23S FOG
KILL DEVIL HLS CLOUDY   N/A N/A N/A CALM      30.23S HAZE
MANTEO         CLOUDY    56  56 100 CALM      30.25S FOG
CAPE HATTERAS  FAIR      64  64 100 W6        30.25R
TARBORO*       NOT AVBL
GOLDSBORO      CLOUDY    62  61  97 SW8       30.23R
WASHINGTON     CLOUDY    62  61  97 S3        30.24F
GREENVILLE     CLOUDY    63  63 100 SW9       30.24S
NEW BERN       FOG       56  56 100 CALM      30.26S VSB 1/4
WILMINGTON     CLOUDY    64  63  96 S7        30.26S
$$

VAZ048-241200-
ELSEWHERE

CITY           SKY/WX    TMP DP  RH WIND       PRES   REMARKS
HARRISBURG PA  CLOUDY    43  42  97 CALM      30.16F FOG
BALTIMORE      FOG       45  45 100 SE5       30.16S VSB 1/16
ANNAPOLIS      FOG       47  46  97 N5        30.18R VSB 1/4
ANDREWS AFB    FOG       48  48 100 CALM      30.16R VSB 1/4
PHILADELPHIA   CLOUDY    44  43  96 NW3       30.20R FOG
HENDERSON NC   FOG       54  54  98 SW6       30.20F VSB 1/2
GREENSBORO     FAIR      49  49 100 SW6       30.19F
ROCKY MOUNT    CLOUDY    62  61  96 SW9       30.23S
$$

VAZ100-241200-
MARINE

STATION/POSITION TIME  TEMP    WIND        PRES    WAVE   SWELL
                       AIR SEA DIR/SP/G            HT/PER HT/PER
                 (UTC) (F)     (DEG/KT/KT) (MB)    (FT/S) (FT/S)
BRANDYWINE LGT   1042   48     180/  7/  7 1022.1F
CAPE MAY NJ      1048   46 43  170/  5/  6 1021.5F
LEWES DE         1042   49 43  180/  5/  7 1021.5F
15NM E FENWICK I 1050   44 43  190/  8/ 10 1022.7F   3/ 7   3/ 7
OCEAN-CITY-INLET 1048   43 42  220/  5/  7 1022.8F
WACHAPREAGUE VA  1048   46 50  240/  3/  4 1022.6R
THOMAS POINT MD  1100   45 42  280/  2/  3   N/A
GOOSES REEF MD   1100   44 42  170/ 12/ 14 1025.7    1/ 2
COVE POINT MD    1048   44     180/  9/  9 1022.4F
SOLOMONS ISLAND  1048   44 43  120/  4/  5 1021.5R
BISHOPS HEAD MD  1048   46 48  160/  6/  6 1022.4S
PINEY POINT MD   1036           80/  3/  4   N/A
POTOMAC MD       1100   44 43  310/  4/  6 1023.0    1
CAMBRIDGE MD     1048   49 47              1022.4F
LEWISETTA VA     1048   50 49  220/  4/  5 1021.5F
RAPPAHANNOCK LGT 1048          180/ 11/ 13 1022.8R
YORK RVR RNG VA  1048   55     240/  6/  8 1022.8F
YORKTOWN VA      1048   57 47  220/  8/ 11 1021.9F
DOMINION TERM VA 1048   56     230/  8/ 12 1022.8F
KIPTOPEKE VA     1036      47  170/  5/  6   N/A
CAPE HENRY VA    1048   60     210/  9/ 15   N/A
WILLOUBY STN VA  1048   59     220/ 11/ 12 1022.6R
S CRANEY ISL VA  1048   60     220/  8/ 12 1022.4F
CAPE HENRY BUOY  1100      44                N/A     3/ 9   2/11
CAPE CHARLES BUO 1051      44                N/A     3/ 8   2/11
64NM E OF VA BCH 1050   51 49  230/  6/  8 1023.9F   4/ 9   3/ 9
DUCK PIER NC     1048   59 45  230/  7/ 10 1023.3F
44100 DUCK FRF   1045      46                N/A     4/ 8   2/11
44056 DUCK FRF   1030      46                N/A     3/ 9   2/11
OREGON INLET NC  1036   56 53  200/  8/  9 1023.9F
HATTERAS NC      1048   63 61  240/  4/  6 1024.3R
DIAMOND SHLS NC  1050   72 73  240/ 16/ 19 1024.4F   5/ 9   3/ 9
CAPE LOOKOUT NC  1100          250/  9/ 10 1024.8S
$$




USA.gov is the U.S. government's official web portal to all federal, state and local government web resources and services.